Regional Weather Roundup
Issued by NWS

Home | Current Version | Previous Version | Graphics & Text | Print | Product List | Glossary On
Versions: 1 2 3 4 5 6 7 8 9 10 11 12 13 14 15 16 17 18 19 20 21 22 23 24 25 26 27 28 29 30 31 32 33 34 35 36 37 38 39 40 41 42 43 44 45 46 47 48 49 50
000
ASUS43 KMKX 230121
RWRWI

WISCONSIN REGIONAL WEATHER ROUNDUP
NATIONAL WEATHER SERVICE MILWAUKEE/SULLIVAN WI
800 PM CDT FRI MAY 22 2015

NOTE: "FAIR" INDICATES FEW OR NO CLOUDS BELOW 12,000 FEET WITH NO
SIGNIFICANT WEATHER AND/OR OBSTRUCTIONS TO VISIBILITY.

WIZ001-002-006>008-014>016-023>028-230200-
NORTHWEST WISCONSIN

CITY           SKY/WX    TMP DP  RH WIND       PRES   REMARKS
SUPERIOR ARPT  CLEAR     45  36  69 NE5       30.17S
ASHLAND        CLEAR     66  35  31 S3        30.16F
HAYWARD        CLEAR     69  30  23 SW5       30.18S
SIREN          CLEAR     67  34  29 SW5       30.19S
CUMBERLAND     CLEAR     64  36  34 SE3       30.20S
RICE LAKE      CLEAR     66  35  31 S5        30.21S
CHETEK         CLEAR     64  39  39 MISG      30.20S
LADYSMITH      CLEAR     64  38  38 S5        30.21S
EAU CLAIRE     PTCLDY    69  32  25 CALM      30.19S
MENOMONIE      PTCLDY    65  37  35 S3        30.20S
NEW RICHMOND   PTCLDY    69  29  22 CALM      30.20S
OSCEOLA        CLEAR     69  35  28 CALM      30.21S
$$

WIZ003>005-009-010-017-018-230200-
NORTH CENTRAL WISCONSIN

CITY           SKY/WX    TMP DP  RH WIND       PRES   REMARKS
MANITOWISH WTR CLEAR     60  29  31 NE3       30.20F
ARBOR VITAE    CLEAR     63  25  23 NE3       30.20F
WOODRUFF       CLEAR     63  25  23 NE3       30.20F
RHINELANDER    CLEAR     64  27  24 CALM      30.21S
EAGLE RIVER    CLEAR     62  21  21 CALM      30.20F
LAND O LAKES   CLEAR     62  22  21 CALM      30.22S
PHILLIPS       CLEAR     65  32  29 CALM      30.19R
TOMAHAWK       CLEAR     61  32  33 CALM      30.20S
MEDFORD        CLEAR     64  35  33 W3        30.21S
MERRILL        CLEAR    N/A N/A N/A CALM      30.21R
$$

WIZ029-030-035-036-043>047-230200-
CENTRAL WISCONSIN

CITY           SKY/WX    TMP DP  RH WIND       PRES   REMARKS
WAUSAU         CLEAR     64  35  34 SW7       30.19R
MOSINEE        CLEAR     61  37  41 SW6       30.22S
MARSHFIELD     PTCLDY    66  33  29 CALM      30.21R
STEVENS POINT  CLEAR     64  34  33 CALM      30.22R
WAUPACA        CLEAR     67  33  27 CALM      30.21S
WAUTOMA        PTCLDY    65  35  32 CALM      30.21S
WISC RAPIDS    LGT RAIN  66  32  28 NE3       30.22R
CAMP DOUGLAS   MOCLDY    63  47  56 S1        30.20R
$$

WIZ011>013-019>022-031-037>040-048>050-230200-
NORTHEAST WISCONSIN

CITY           SKY/WX    TMP DP  RH WIND       PRES   REMARKS
ANTIGO         CLEAR     62  38  42 CALM      30.21R
SHAWANO        CLEAR     67  32  27 W3        30.19S
OCONTO         CLEAR     53  32  44 SE8       30.22S
STURGEON BAY   CLEAR     46  21  36 SE9       30.27S
GREEN BAY      CLEAR     57  31  37 S10       30.23R
MANITOWOC      PTCLDY    49  26  41 S9        30.26S
APPLETON       PTCLDY    61  32  33 S12       30.23R
CLINTONVILLE   CLEAR     66  32  28 W3        30.20S
OSHKOSH        PTCLDY    59  34  39 SE10      30.22R
$$

WIZ032>034-041-042-053>061-230200-
SOUTHWEST WISCONSIN

CITY           SKY/WX    TMP DP  RH WIND       PRES   REMARKS
LA CROSSE      CLOUDY    71  38  29 CALM      30.19R
SPARTA         CLOUDY    66  37  33 CALM      30.22R
VIROQUA        CLOUDY    67  34  29 CALM      30.21S
BOSCOBEL       CLOUDY    67  45  45 CALM      30.20R
PRAIRIE DU CHI CLOUDY    68  44  42 CALM      30.18S
PLATTEVILLE    CLOUDY    69  37  30 CALM      30.21R
$$

WIZ056-057-062-063-064-067-068-230200-
SOUTH CENTRAL WISCONSIN

CITY           SKY/WX    TMP DP  RH WIND       PRES   REMARKS
REEDSBURG      CLOUDY    66  40  38 CALM      30.20S
BARABOO/DELLS  CLOUDY    63  43  48 CALM      30.21S
LONE ROCK      CLOUDY    67  43  41 CALM      30.20R
MINERAL POINT  CLOUDY    68  34  28 SW3       30.22R
MADISON        CLOUDY    65  41  41 CALM      30.21S
MIDDLETON      CLOUDY    67  34  30 SE5       30.22R
WATERTOWN      MOCLDY    60  37  43 E8        30.23S
MONROE         CLOUDY    68  39  34 S3        30.22R
JANESVILLE     CLEAR     66  36  32 E16       30.22R
$$

WIZ051-052-058>065-066-070>072-230200-
SOUTHEAST WISCONSIN

CITY           SKY/WX    TMP DP  RH WIND       PRES   REMARKS
MILWAUKEE      MOCLDY    48  27  44 SE8       30.28S
WAUKESHA       MOCLDY    54  27  35 E8        30.28R
MILWAUKEE/TIMM CLEAR     52  18  25 SE6       30.29R
RACINE         MOCLDY    48  30  49 E6        30.29S
BURLINGTON     MOCLDY    54  27  35 E8        30.27R
KENOSHA        MOCLDY    50  27  40 E8        30.28R
FOND DU LAC    PTCLDY    56  30  37 SE9       30.24R
SHEBOYGAN      PTCLDY    50  25  37 S7        30.26S
WEST BEND      MOCLDY    50  23  34 SE3       30.27S
JUNEAU         MOCLDY    60  36  40 E14       30.25R
$$

LSZ147-162-230200-
LAKE SUPERIOR

STATION/POSITION TIME  TEMP    WIND        PRES    WAVE
                       AIR SEA DIR/SP/G            HT/PER
                 (UTC) (F)     (DEG/KT/KT) (MB)    (FT/S)
W MID LAKE BUOY  0050   41 37   CALM  /  2   N/A     0
DEVILS ISLAND    0100   43      80/  6/  7   N/A
PORT WING        0040   43      20/  6/  6   N/A
SAXON HARBOR     0000   66        CALM       N/A
$$

LMZ867-665-643>646-230200-
LAKE MICHIGAN

STATION/POSITION TIME  TEMP    WIND        PRES    WAVE
                       AIR SEA DIR/SP/G            HT/PER
                 (UTC) (F)     (DEG/KT/KT) (MB)    (FT/S)
CHAMBERS ISLAND  0000   54     140/  4/ 11   N/A
N MID LAKE BUOY  0050   40 36  200/  6/  8   N/A     0
NORTHPORT PIER   0000   49     160/  7/ 11   N/A
SISTER BAY       0002   51     140/ 11/ 14   N/A
KEWAUNEE LAKESHO 0000   47     170/ 10/ 11   N/A
SHEBOYGAN LAKESH 0100          190/ 11/ 11   N/A
PORT WASHINGTON  0000   49     170/  2/  4   N/A
ATWATER BUOY     0100   46 45  150/  4/  6   N/A
MILWAUKEE LAKESH 0100   46     100/  1/  2   N/A
S MID LAKE BUOY  0050   42 38  140/  6/  6   N/A     0
KENOSHA   LAKESH 0100   48     110/  4/  5   N/A
$$

TC  - TEMPERATURE IN CELSIUS
VSB - VISIBILITY IN STATUTE MILES
WCI - WIND CHILL INDEX
HX  - HEAT INDEX




USA.gov is the U.S. government's official web portal to all federal, state and local government web resources and services.